This is the latest recevied weather packets stored in our database for station/object LA3SP-1. If no packets are shown the sender has not sent any weather packets the latest 10 day(s).
| Time | Temp. | Humidity | Pressure | Rain* | Wind** | Luminosity | Snow |
|---|---|---|---|---|---|---|---|
| 1777870618 | -0.56° C | 73% | 1000.1 hPa | 0 mm | - | - | - |
| 1777870016 | -0.56° C | 73% | 1000 hPa | 0 mm | - | - | - |
| 1777868813 | -1.11° C | 74% | 1000 hPa | 0 mm | - | - | - |
| 1777868212 | -1.11° C | 74% | 1000 hPa | 0 mm | - | - | - |
| 1777867610 | -1.67° C | 73% | 999.9 hPa | 0 mm | - | - | - |
| 1777867009 | -1.67° C | 72% | 1000 hPa | 0 mm | - | - | - |
| 1777866407 | -1.11° C | 71% | 999.9 hPa | 0 mm | - | - | - |
| 1777865806 | -1.11° C | 71% | 1000.2 hPa | 0 mm | - | - | - |
| 1777864604 | -1.11° C | 69% | 1000.2 hPa | 0 mm | - | - | - |
| 1777864002 | -1.11° C | 68% | 1000.4 hPa | 0 mm | - | - | - |
| 1777862799 | -1.11° C | 65% | 1000.7 hPa | 0 mm | - | - | - |
| 1777862198 | -1.11° C | 64% | 1000.9 hPa | 0 mm | - | - | - |
| 1777861596 | -1.11° C | 64% | 1000.8 hPa | 0 mm | - | - | - |
| 1777860394 | -0.56° C | 63% | 1001.1 hPa | 0 mm | - | - | - |
| 1777859792 | -0.56° C | 63% | 1001 hPa | 0 mm | - | - | - |
| 1777857988 | -0.56° C | 60% | 1001 hPa | 0 mm | - | - | - |
| 1777857387 | -0.56° C | 60% | 1001 hPa | 0 mm | - | - | - |
| 1777854981 | 0° C | 65% | 1001.3 hPa | 0 mm | - | - | - |
| 1777854380 | 0° C | 65% | 1001.3 hPa | 0 mm | - | - | - |
| 1777853778 | 0° C | 66% | 1001.2 hPa | 0 mm | - | - | - |
| 1777852575 | 0° C | 69% | 1001.4 hPa | 0 mm | - | - | - |
| 1777851373 | 0° C | 70% | 1001.8 hPa | 0 mm | - | - | - |
| 1777850772 | 0° C | 70% | 1001.8 hPa | 0 mm | - | - | - |
| 1777850170 | 0° C | 70% | 1001.8 hPa | 0 mm | - | - | - |
| 1777848967 | 0.56° C | 70% | 1002 hPa | 0 mm | - | - | - |
* Rain latest 24 hours (hover to see other rain measurements)
** Current wind speed in m/s (hover to see current wind gust speed)